Flag for U.S.A. Weather past 2 weeks in Sitka, Alaska, U.S.A.

Now
47 °F

Partly sunny.


Feels Like: 46 °F
Forecast: 38 / 55 °F
Wind: 3 mph from West

Location: Sitka Airport

Current Time: Apr 25, 2015 at 2:59:02 PM

Latest Report: Apr 25, 2015 at 1:53 PM


Visibility: 10 mi

Pressure: 29.83 "Hg

Humidity: 83%

Dew point: 42 °F

Location of SitkaLocation

Historic Weather in Sitka — Graph

°F

Sitka temperature yesterday

Maximum temperature yesterday: 53 °F (at 4:53 PM)
Minimum temperature yesterday: 38 °F (at 3:53 AM)
Average temperature yesterday: 46 °F

Past Weeks' High & Low Weather Summary

 TemperatureHumidityPressure
High57 °F (Apr 23, 12:53 PM)97% (Apr 11, 1:00 AM)30.40 "Hg (Apr 11, 1:00 AM)
Low31 °F (Apr 13, 3:53 AM)24% (Apr 23, 12:53 PM)29.29 "Hg (Apr 10, 12:53 PM)
Average42 °F76%29.86 "Hg
* Reported Apr 10 12:53 PM — Apr 25 12:55 PM, Sitka, Weather by CustomWeather, © 2015

Note: Actual official high and low records may vary slightly from our data, if they occured in-between our weather recording intervals... More about our weather records

Advertising

Sitka weather history for previous 24 hours

 ConditionsComfort  
Time TempWeatherWind HumidityBarometerVisibility
12:55 PM
Sat, Apr 25
48 °FPartly sunny.6 mph74%29.86 "Hg10 mi
11:53 AM49 °FScattered clouds.6 mph74%29.85 "Hg10 mi
10:53 AM45 °FPassing clouds.5 mph90%29.86 "Hg10 mi
9:53 AM45 °FFog.No wind86%29.86 "Hg10 mi
8:53 AM44 °FFog.No wind85%29.87 "Hg10 mi
7:53 AM43 °FFog.No wind82%29.87 "Hg10 mi
6:53 AM40 °FFog.3 mph89%29.87 "Hg10 mi
5:53 AM38 °FPassing clouds.No wind86%29.88 "Hg10 mi
4:53 AM38 °FPassing clouds.3 mph86%29.87 "Hg10 mi
3:53 AM38 °FClear.5 mph86%29.87 "Hg10 mi
2:53 AM40 °FClear.3 mph86%29.86 "Hg10 mi
1:53 AM41 °FPassing clouds.3 mph82%29.86 "Hg10 mi
12:53 AM42 °FPassing clouds.3 mph82%29.85 "Hg10 mi
11:53 PM
Fri, Apr 24
43 °FPassing clouds.No wind79%29.85 "Hg10 mi
10:53 PM44 °FPassing clouds.5 mph79%29.85 "Hg10 mi
9:53 PM47 °FPassing clouds.3 mph83%29.84 "Hg10 mi
8:53 PM49 °FPassing clouds.No wind77%29.83 "Hg10 mi
7:53 PM50 °FPartly sunny.3 mph66%29.81 "Hg10 mi
6:53 PM50 °FPassing clouds.8 mph71%29.80 "Hg10 mi
5:53 PM52 °FPartly sunny.8 mph64%29.79 "Hg10 mi
4:53 PM53 °FOvercast.3 mph64%29.78 "Hg10 mi
3:53 PM52 °FScattered clouds.6 mph62%29.78 "Hg10 mi
2:53 PM51 °FScattered clouds.6 mph71%29.77 "Hg10 mi
Weather by CustomWeather, © 2015

See weather overviewHow to use our weather pages